Home > Weather > Garden Grove > Past weeks

Flag for USA Past Weather in Garden Grove, California, USA — Yesterday and Last 2 Weeks

Now
75 °F

Sunny.


Feels Like: 76 °F
Forecast: 67 / 86 °F
Wind: No wind

Location: Fullerton Municipal Airport

Current Time: Jul 25, 2016 at 9:05:40 AM

Latest Report: Jul 25, 2016 at 7:53 AM


Visibility: 8 mi

Pressure: 29.95 "Hg

Humidity: 74%

Dew Point: 66 °F

Location of Garden GroveLocation

Past Weather in Garden Grove — Graph

°F

Garden Grove Temperature Yesterday

Maximum temperature yesterday: 91 °F (at 2:53 PM)
Minimum temperature yesterday: 69 °F (at 5:53 AM)
Average temperature yesterday: 78 °F

High & Low Weather Summary for the Past Weeks

 TemperatureHumidityPressure
High103 °F (Jul 22, 2:53 PM)87% (Jul 24, 4:53 AM)30.02 "Hg (Jul 24, 4:53 AM)
Low65 °F (Jul 15, 3:53 AM)13% (Jul 22, 3:53 PM)29.78 "Hg (Jul 23, 5:53 PM)
Average77 °F59%29.91 "Hg
* Reported Jul 10 7:53 AM — Jul 25 7:53 AM, Garden Grove, Weather by CustomWeather, © 2016

Note: Actual official high and low records may vary slightly from our data, if they occured in-between our weather recording intervals... More about our weather records

Advertising

Garden Grove Weather History for the Previous 24 Hours

Scroll right to see more
 ConditionsComfort  
Time TempWeatherWind HumidityBarometerVisibility
7:53 AM
Mon, Jul 25
75 °FSunny.No wind74%29.95 "Hg8 mi
7:02 AM73 °FPassing clouds.No wind79%29.93 "Hg7 mi
6:53 AM72 °FClear.No wind81%29.93 "Hg7 mi
5:53 AM70 °FClear.No wind84%29.91 "Hg8 mi
4:53 AM71 °FClear.No wind81%29.90 "Hg9 mi
3:53 AM71 °FClear.No wind81%29.90 "Hg8 mi
2:53 AM72 °FPassing clouds.3 mph81%29.90 "Hg9 mi
1:53 AM72 °FOvercast.No wind81%29.91 "Hg9 mi
12:53 AM72 °FClear.No wind81%29.90 "Hg9 mi
11:53 PM
Sun, Jul 24
72 °FOvercast.3 mph81%29.90 "Hg9 mi
10:53 PM72 °FClear.5 mph81%29.91 "Hg9 mi
9:53 PM73 °FClear.No wind79%29.90 "Hg10 mi
8:53 PM74 °FSunny.6 mph76%29.88 "Hg10 mi
7:53 PM78 °FSunny.3 mph62%29.86 "Hg10 mi
6:53 PM82 °FSunny.5 mph49%29.86 "Hg10 mi
5:53 PM85 °FSunny.7 mph39%29.85 "Hg10 mi
4:53 PM88 °FSunny.6 mph31%29.86 "Hg10 mi
3:53 PM88 °FSunny.9 mph36%29.87 "Hg10 mi
2:53 PM91 °FSunny.10 mph26%29.88 "Hg10 mi
1:53 PM90 °FSunny.9 mph32%29.90 "Hg10 mi
12:53 PM89 °FSunny.N/A39%29.90 "Hg10 mi
11:53 AM85 °FSunny.6 mph48%29.92 "Hg10 mi
10:53 AM81 °FSunny.5 mph56%29.92 "Hg10 mi
9:53 AM78 °FSunny.6 mph62%29.90 "Hg10 mi
Weather by CustomWeather, © 2016

See weather overviewHow to use our weather pages